When you browse on this site, cookies collect data to enhance your experience and personalize the content and advertising you see.
Visit our Privacy Policy to learn more. By continuing to use the site, you agree to this use of cookies and data.
  • en France
  • Liste des pays
  • À 7 jours
  • Température de l'eau
  • Carte météo
  • Widgets météo
  • user-avatar
    Se connecter

    Météo par heure à Lezhё

    Ce jour, 1 Juin, Lundi

    Heure Température Précipitation Vent Pression Humidité
    00:00 +12°C° 0.4 mm 1 m/s 736 mmHg 89%
    01:00 +12°C° 0 mm 1 m/s 736 mmHg 88%
    02:00 +10°C° 0.3 mm 2 m/s 735 mmHg 87%
    03:00 +10°C° 0.3 mm 2 m/s 735 mmHg 87%
    04:00 +10°C° 0.3 mm 2 m/s 735 mmHg 87%
    05:00 +12°C° 0 mm 2 m/s 735 mmHg 83%
    06:00 +14°C° 0 mm 2 m/s 735 mmHg 78%
    07:00 +15°C° 0 mm 2 m/s 735 mmHg 74%
    08:00 +17°C° 0.1 mm 2 m/s 735 mmHg 67%
    09:00 +18°C° 0.1 mm 2 m/s 735 mmHg 61%
    10:00 +20°C° 0.1 mm 2 m/s 735 mmHg 54%
    11:00 +20°C° 0 mm 2 m/s 735 mmHg 53%
    12:00 +21°C° 0 mm 3 m/s 735 mmHg 52%
    13:00 +21°C° 0 mm 4 m/s 735 mmHg 51%
    14:00 +21°C° 0.1 mm 4 m/s 735 mmHg 53%
    15:00 +20°C° 0.1 mm 4 m/s 735 mmHg 56%
    16:00 +20°C° 0.1 mm 3 m/s 735 mmHg 59%
    17:00 +18°C° 0.1 mm 3 m/s 735 mmHg 66%
    18:00 +17°C° 0.1 mm 2 m/s 735 mmHg 72%
    19:00 +15°C° 0.1 mm 2 m/s 735 mmHg 78%
    20:00 +15°C° 0 mm 2 m/s 735 mmHg 79%
    21:00 +14°C° 0 mm 2 m/s 735 mmHg 80%
    22:00 +13°C° 0 mm 2 m/s 735 mmHg 80%
    23:00 +13°C° 0 mm 2 m/s 735 mmHg 80%

    Demain, 2 Juin, Mardi

    Heure Température Précipitation Vent Pression Humidité
    00:00 +12°C° 0 mm 2 m/s 735 mmHg 79%
    01:00 +12°C° 0 mm 2 m/s 735 mmHg 79%
    02:00 +12°C° 0 mm 2 m/s 734 mmHg 79%
    03:00 +12°C° 0 mm 2 m/s 734 mmHg 79%
    04:00 +10°C° 0 mm 2 m/s 734 mmHg 79%
    05:00 +13°C° 0 mm 2 m/s 734 mmHg 74%
    06:00 +15°C° 0 mm 1 m/s 734 mmHg 69%
    07:00 +18°C° 0 mm 1 m/s 734 mmHg 65%
    08:00 +20°C° 0 mm 1 m/s 734 mmHg 59%
    09:00 +21°C° 0 mm 1 m/s 734 mmHg 54%
    10:00 +23°C° 0 mm 2 m/s 734 mmHg 49%
    11:00 +23°C° 0.1 mm 2 m/s 734 mmHg 51%
    12:00 +22°C° 0.1 mm 3 m/s 733 mmHg 53%
    13:00 +22°C° 0.1 mm 4 m/s 733 mmHg 54%
    14:00 +21°C° 0.4 mm 3 m/s 733 mmHg 58%
    15:00 +21°C° 0.4 mm 3 m/s 733 mmHg 62%
    16:00 +20°C° 0.4 mm 3 m/s 733 mmHg 66%
    17:00 +18°C° 0.4 mm 2 m/s 733 mmHg 72%
    18:00 +17°C° 0.4 mm 2 m/s 733 mmHg 79%
    19:00 +15°C° 0.4 mm 1 m/s 732 mmHg 85%
    20:00 +15°C° 0 mm 2 m/s 733 mmHg 85%
    21:00 +14°C° 0 mm 2 m/s 733 mmHg 84%
    22:00 +13°C° 0 mm 2 m/s 733 mmHg 84%
    23:00 +13°C° 0 mm 2 m/s 733 mmHg 84%

    Après-demain, 3 Juin, Mercredi

    Heure Température Précipitation Vent Pression Humidité
    00:00 +12°C° 0 mm 2 m/s 733 mmHg 84%
    01:00 +12°C° 0 mm 2 m/s 733 mmHg 83%
    02:00 +10°C° 0 mm 2 m/s 733 mmHg 83%
    03:00 +10°C° 0 mm 2 m/s 733 mmHg 82%
    04:00 +10°C° 0 mm 2 m/s 733 mmHg 81%
    05:00 +12°C° 0 mm 2 m/s 733 mmHg 76%
    06:00 +14°C° 0 mm 2 m/s 733 mmHg 70%
    07:00 +16°C° 0 mm 2 m/s 732 mmHg 65%
    08:00 +19°C° 0 mm 1 m/s 733 mmHg 59%
    09:00 +20°C° 0 mm 1 m/s 733 mmHg 52%
    10:00 +22°C° 0 mm 1 m/s 733 mmHg 46%
    11:00 +21°C° 0 mm 2 m/s 733 mmHg 46%
    12:00 +22°C° 0 mm 3 m/s 732 mmHg 45%
    13:00 +22°C° 0 mm 3 m/s 732 mmHg 44%
    14:00 +21°C° 0 mm 3 m/s 732 mmHg 48%
    15:00 +21°C° 0 mm 3 m/s 732 mmHg 52%
    16:00 +20°C° 0 mm 3 m/s 732 mmHg 55%
    17:00 +19°C° 0 mm 2 m/s 732 mmHg 63%
    18:00 +18°C° 0 mm 1 m/s 732 mmHg 72%
    19:00 +15°C° 0 mm 1 m/s 732 mmHg 80%
    20:00 +15°C° 0 mm 1 m/s 733 mmHg 81%
    21:00 +14°C° 0 mm 1 m/s 733 mmHg 82%
    22:00 +13°C° 0 mm 1 m/s 733 mmHg 82%
    23:00 +13°C° 0 mm 1 m/s 733 mmHg 80%

    4 Juin, Jeudi

    Heure Température Précipitation Vent Pression Humidité
    00:00 +13°C° 0 mm 1 m/s 733 mmHg 78%
    01:00 +13°C° 0 mm 1 m/s 733 mmHg 77%
    02:00 +13°C° 0 mm 2 m/s 733 mmHg 75%
    03:00 +13°C° 0 mm 2 m/s 733 mmHg 73%
    04:00 +12°C° 0 mm 2 m/s 733 mmHg 72%
    05:00 +14°C° 0 mm 2 m/s 733 mmHg 66%
    06:00 +18°C° 0 mm 1 m/s 733 mmHg 61%
    07:00 +20°C° 0 mm 1 m/s 733 mmHg 55%
    08:00 +20°C° 0 mm 2 m/s 733 mmHg 53%
    09:00 +21°C° 0 mm 2 m/s 733 mmHg 50%
    10:00 +24°C° 0 mm 2 m/s 734 mmHg 48%
    11:00 +24°C° 0 mm 3 m/s 734 mmHg 49%
    12:00 +23°C° 0 mm 4 m/s 734 mmHg 50%
    13:00 +25°C° 0 mm 5 m/s 733 mmHg 52%
    14:00 +23°C° 0 mm 5 m/s 733 mmHg 54%
    15:00 +23°C° 0 mm 5 m/s 733 mmHg 56%
    16:00 +22°C° 0 mm 6 m/s 733 mmHg 58%
    17:00 +21°C° 0 mm 5 m/s 733 mmHg 64%
    18:00 +19°C° 0 mm 4 m/s 733 mmHg 71%
    19:00 +17°C° 0 mm 3 m/s 733 mmHg 77%
    20:00 +17°C° 0 mm 3 m/s 733 mmHg 77%
    21:00 +16°C° 0 mm 2 m/s 734 mmHg 77%
    22:00 +16°C° 0 mm 2 m/s 734 mmHg 78%
    23:00 +15°C° 0 mm 2 m/s 734 mmHg 77%

    5 Juin, Vendredi

    Heure Température Précipitation Vent Pression Humidité
    00:00 +15°C° 0 mm 2 m/s 733 mmHg 76%
    01:00 +15°C° 0 mm 2 m/s 733 mmHg 75%
    02:00 +15°C° 0 mm 2 m/s 733 mmHg 71%
    03:00 +15°C° 0 mm 2 m/s 733 mmHg 67%
    04:00 +15°C° 0 mm 1 m/s 733 mmHg 63%
    05:00 +16°C° 0 mm 1 m/s 733 mmHg 63%
    06:00 +18°C° 0 mm 1 m/s 733 mmHg 63%
    07:00 +19°C° 0 mm 1 m/s 733 mmHg 62%
    08:00 +17°C° 0.9 mm 2 m/s 733 mmHg 69%
    09:00 +16°C° 0.9 mm 2 m/s 732 mmHg 76%
    10:00 +16°C° 0.9 mm 3 m/s 732 mmHg 83%
    11:00 +14°C° 3.3 mm 3 m/s 732 mmHg 87%
    12:00 +14°C° 3.3 mm 3 m/s 731 mmHg 91%
    13:00 +14°C° 3.3 mm 2 m/s 731 mmHg 95%
    14:00 +14°C° 1.5 mm 3 m/s 731 mmHg 94%
    15:00 +14°C° 1.5 mm 3 m/s 730 mmHg 93%
    16:00 +14°C° 1.5 mm 3 m/s 730 mmHg 92%
    17:00 +14°C° 1.5 mm 3 m/s 730 mmHg 93%
    18:00 +14°C° 1.5 mm 3 m/s 730 mmHg 94%
    19:00 +15°C° 1.5 mm 2 m/s 730 mmHg 95%
    20:00 +15°C° 2.1 mm 2 m/s 730 mmHg 94%
    21:00 +15°C° 2.1 mm 2 m/s 730 mmHg 94%
    22:00 +15°C° 2.1 mm 1 m/s 730 mmHg 93%
    23:00 +15°C° 0.7 mm 2 m/s 730 mmHg 93%

    6 Juin, Samedi

    Heure Température Précipitation Vent Pression Humidité
    00:00 +15°C° 0.7 mm 2 m/s 730 mmHg 93%
    01:00 +15°C° 0.7 mm 2 m/s 730 mmHg 93%
    02:00 +15°C° 0.6 mm 2 m/s 731 mmHg 93%
    03:00 +15°C° 0.6 mm 2 m/s 731 mmHg 93%
    04:00 +15°C° 0.6 mm 2 m/s 731 mmHg 93%
    05:00 +16°C° 0.5 mm 2 m/s 731 mmHg 89%
    06:00 +18°C° 0.5 mm 1 m/s 731 mmHg 85%
    07:00 +19°C° 0.5 mm 1 m/s 732 mmHg 80%
    08:00 +20°C° 0.2 mm 1 m/s 732 mmHg 74%
    09:00 +22°C° 0.2 mm 1 m/s 732 mmHg 68%
    10:00 +23°C° 0.2 mm 1 m/s 733 mmHg 62%
    11:00 +23°C° 0.1 mm 2 m/s 733 mmHg 60%
    12:00 +23°C° 0.1 mm 2 m/s 733 mmHg 58%
    13:00 +22°C° 0.1 mm 3 m/s 733 mmHg 56%
    14:00 +22°C° 0.1 mm 3 m/s 733 mmHg 57%
    15:00 +23°C° 0.1 mm 2 m/s 733 mmHg 59%
    16:00 +21°C° 0.1 mm 2 m/s 733 mmHg 60%
    17:00 +21°C° 0 mm 1 m/s 733 mmHg 66%
    18:00 +19°C° 0 mm 1 m/s 734 mmHg 73%
    19:00 +16°C° 0 mm 0 m/s 734 mmHg 80%
    20:00 +15°C° 0 mm 0 m/s 734 mmHg 81%
    21:00 +16°C° 0 mm 1 m/s 735 mmHg 83%
    22:00 +15°C° 0 mm 1 m/s 735 mmHg 84%
    23:00 +15°C° 0 mm 1 m/s 735 mmHg 84%
    Voir plus